Location: Koszewko
(53.2876°N, 14.9061°E)
Time: 00:28:19
(UTC+00:00)

Cosmos 192 - Pass Details

Date: 03 March 2021
Orbit: 700 x 714 km, 74.0° (Epoch: 11 April)

Event Time Altitude Azimuth Distance (km) Brightness Sun altitude
Rises 19:16:45 0° 204° (SSW) 3,077 7.7 -23.5°
Reaches altitude 10° 19:19:03 10° 204° (SSW) 2,165 6.8 -23.8°
Maximum altitude 19:23:57 90° 261° (W) 711 4.2 -24.4°
Drops below altitude 10° 19:28:54 10° 26° (NNE) 2,187 6.8 -25.1°
Sets 19:31:14 0° 27° (NNE) 3,112 7.6 -25.4°
